OHY2652 LTBA-LTAC

Flight info

Callsign OHY2652
Flight time 0h 38m
Altitude 27000
Route VICEN UT380 ASMAP UL333 LATGA
Aircraft A320/M-SDE3FGHIRWY/LB1

Departure

Time 2026-04-25 19:45
Airport İstanbul Atatürk Airport (LTBA)

Arrival

Time 2026-04-25 20:23
Airport Esenboğa International Airport (LTAC)
Time Latitude Longitude Altitude Speed Heading
2026-04-25 19:07 40.97668 28.82145 112 ft 0 kts 355°
2026-04-25 19:35 40.97660 28.82146 111 ft 2 kts 355°
2026-04-25 19:35 40.97640 28.82148 111 ft 3 kts 355°
2026-04-25 19:35 40.97620 28.82151 111 ft 3 kts 347°
2026-04-25 19:36 40.97608 28.82154 111 ft 3 kts 284°
2026-04-25 19:36 40.97608 28.82162 111 ft 2 kts 260°
2026-04-25 19:36 40.97610 28.82183 111 ft 1 kts 260°
2026-04-25 19:36 40.97611 28.82186 111 ft 0 kts 260°
2026-04-25 19:38 40.97611 28.82185 111 ft 0 kts 259°
2026-04-25 19:39 40.97584 28.82121 110 ft 13 kts 255°
2026-04-25 19:39 40.97567 28.82012 112 ft 12 kts 258°
2026-04-25 19:39 40.97552 28.81917 112 ft 10 kts 258°
2026-04-25 19:39 40.97534 28.81804 112 ft 17 kts 258°
2026-04-25 19:40 40.97516 28.81671 112 ft 13 kts 260°
2026-04-25 19:40 40.97500 28.81561 110 ft 11 kts 259°
2026-04-25 19:40 40.97476 28.81471 112 ft 11 kts 232°
2026-04-25 19:40 40.97398 28.81433 112 ft 12 kts 183°
2026-04-25 19:41 40.97317 28.81436 112 ft 14 kts 178°
2026-04-25 19:41 40.97218 28.81441 112 ft 14 kts 179°
2026-04-25 19:41 40.97128 28.81441 111 ft 13 kts 178°
2026-04-25 19:41 40.97069 28.81444 112 ft 14 kts 177°
2026-04-25 19:42 40.96944 28.81396 113 ft 14 kts 235°
2026-04-25 19:42 40.96898 28.81298 112 ft 12 kts 238°
2026-04-25 19:42 40.96846 28.81184 111 ft 16 kts 239°
2026-04-25 19:42 40.96794 28.81086 111 ft 10 kts 219°
2026-04-25 19:43 40.96752 28.81066 113 ft 3 kts 180°
2026-04-25 19:43 40.96710 28.81085 113 ft 11 kts 153°
2026-04-25 19:43 40.96664 28.81159 112 ft 9 kts 104°
2026-04-25 19:43 40.96670 28.81224 114 ft 0 kts 59°
2026-04-25 19:44 40.96677 28.81239 114 ft 17 kts 58°
2026-04-25 19:44 40.96884 28.81686 112 ft 93 kts 58°
2026-04-25 19:44 40.97327 28.82641 111 ft 148 kts 58°
2026-04-25 19:44 40.97909 28.83919 459 ft 168 kts 59°
2026-04-25 19:45 40.98515 28.85303 1088 ft 176 kts 59°
2026-04-25 19:45 40.99178 28.86778 1470 ft 198 kts 58°
2026-04-25 19:45 40.99946 28.88424 1846 ft 222 kts 58°
2026-04-25 19:45 41.00807 28.90250 2252 ft 245 kts 58°
2026-04-25 19:46 41.01732 28.92226 2817 ft 259 kts 58°
2026-04-25 19:46 41.02685 28.94267 3120 ft 263 kts 59°
2026-04-25 19:46 41.03648 28.96334 4052 ft 264 kts 59°
2026-04-25 19:46 41.04611 28.98422 4934 ft 268 kts 59°
2026-04-25 19:47 41.05587 29.00545 5766 ft 272 kts 58°
2026-04-25 19:47 41.06578 29.02700 6596 ft 276 kts 58°
2026-04-25 19:47 41.07581 29.04884 7400 ft 279 kts 58°
2026-04-25 19:47 41.08500 29.07172 8179 ft 284 kts 71°
2026-04-25 19:48 41.08728 29.09779 8918 ft 290 kts 97°
2026-04-25 19:48 41.08073 29.12314 9636 ft 295 kts 123°
2026-04-25 19:48 41.06657 29.14286 10330 ft 301 kts 142°
2026-04-25 19:48 41.04966 29.16102 10568 ft 325 kts 140°
2026-04-25 19:49 41.03522 29.18512 10867 ft 345 kts 116°
2026-04-25 19:49 41.03206 29.19490 11042 ft 348 kts 110°
2026-04-25 19:49 41.01969 29.24638 12169 ft 355 kts 108°
2026-04-25 19:49 41.01232 29.27778 12822 ft 359 kts 108°
2026-04-25 19:50 40.99737 29.34151 14124 ft 366 kts 108°
2026-04-25 19:50 40.98974 29.37380 14758 ft 369 kts 107°
2026-04-25 19:50 40.98203 29.40634 15379 ft 372 kts 107°
2026-04-25 19:51 40.97424 29.43919 15990 ft 375 kts 107°
2026-04-25 19:51 40.96640 29.47223 16589 ft 378 kts 107°
2026-04-25 19:51 40.95847 29.50558 17168 ft 381 kts 107°
2026-04-25 19:51 40.95046 29.53914 17728 ft 384 kts 107°
2026-04-25 19:52 40.94237 29.57292 18270 ft 387 kts 107°
2026-04-25 19:52 40.93415 29.60701 18808 ft 390 kts 107°
2026-04-25 19:52 40.92589 29.64135 19320 ft 393 kts 107°
2026-04-25 19:52 40.91762 29.67593 19834 ft 396 kts 107°
2026-04-25 19:53 40.90927 29.71075 20331 ft 399 kts 107°
2026-04-25 19:53 40.90084 29.74577 20800 ft 401 kts 107°
2026-04-25 19:53 40.89235 29.78097 21277 ft 403 kts 107°
2026-04-25 19:53 40.88375 29.81642 21746 ft 406 kts 107°
2026-04-25 19:54 40.87510 29.85200 22193 ft 408 kts 107°
2026-04-25 19:54 40.86640 29.88778 22630 ft 410 kts 107°
2026-04-25 19:54 40.85767 29.92372 23057 ft 412 kts 107°
2026-04-25 19:54 40.85469 29.93598 23199 ft 414 kts 107°
2026-04-25 19:55 40.84004 29.99625 23850 ft 417 kts 107°
2026-04-25 19:55 40.83112 30.03286 24241 ft 420 kts 107°
2026-04-25 19:55 40.82213 30.06963 24612 ft 423 kts 108°
2026-04-25 19:55 40.81308 30.10671 24979 ft 425 kts 108°
2026-04-25 19:56 40.80398 30.14398 25344 ft 428 kts 108°
2026-04-25 19:56 40.79483 30.18146 25714 ft 430 kts 108°
2026-04-25 19:56 40.78560 30.21912 26078 ft 432 kts 108°
2026-04-25 19:56 40.77630 30.25686 26411 ft 433 kts 108°
2026-04-25 19:57 40.76694 30.29473 26748 ft 436 kts 108°
2026-04-25 19:57 40.75750 30.33281 26996 ft 437 kts 108°
2026-04-25 19:57 40.74809 30.37068 27055 ft 429 kts 108°
2026-04-25 19:57 40.73885 30.40786 27054 ft 424 kts 108°
2026-04-25 19:58 40.72970 30.44466 27053 ft 422 kts 108°
2026-04-25 19:58 40.72056 30.48135 27054 ft 421 kts 108°
2026-04-25 19:58 40.71142 30.51806 27052 ft 421 kts 108°
2026-04-25 19:58 40.70228 30.55476 27055 ft 421 kts 108°
2026-04-25 19:59 40.69316 30.59142 27054 ft 421 kts 108°
2026-04-25 19:59 40.68403 30.62810 27056 ft 421 kts 108°
2026-04-25 19:59 40.67486 30.66480 27053 ft 422 kts 108°
2026-04-25 19:59 40.66565 30.70150 27054 ft 423 kts 108°
2026-04-25 20:00 40.65642 30.73823 27054 ft 423 kts 108°
2026-04-25 20:00 40.65344 30.75013 27054 ft 423 kts 108°
2026-04-25 20:00 40.63798 30.81166 27052 ft 422 kts 109°
2026-04-25 20:00 40.62869 30.84838 27050 ft 422 kts 109°
2026-04-25 20:01 40.61003 30.92171 27050 ft 422 kts 109°
2026-04-25 20:01 40.60071 30.95832 27048 ft 423 kts 109°
2026-04-25 20:01 40.59135 30.99506 27048 ft 423 kts 109°
2026-04-25 20:02 40.58201 31.03178 27049 ft 423 kts 109°
2026-04-25 20:02 40.57266 31.06847 27051 ft 423 kts 109°
2026-04-25 20:02 40.56332 31.10518 27052 ft 423 kts 109°
2026-04-25 20:02 40.55398 31.14192 27053 ft 423 kts 109°
2026-04-25 20:03 40.54463 31.17862 27053 ft 424 kts 109°
2026-04-25 20:03 40.53524 31.21537 27052 ft 424 kts 109°
2026-04-25 20:03 40.52578 31.25205 27052 ft 424 kts 110°
2026-04-25 20:03 40.51628 31.28873 27052 ft 424 kts 110°
2026-04-25 20:04 40.50679 31.32547 27045 ft 425 kts 110°
2026-04-25 20:04 40.49733 31.36221 27047 ft 424 kts 110°
2026-04-25 20:04 40.48785 31.39899 27051 ft 425 kts 110°
2026-04-25 20:04 40.47833 31.43573 27053 ft 425 kts 110°
2026-04-25 20:05 40.46879 31.47251 27058 ft 425 kts 110°
2026-04-25 20:05 40.45963 31.50889 27056 ft 426 kts 109°
2026-04-25 20:05 40.45110 31.54612 27057 ft 426 kts 107°
2026-04-25 20:05 40.44308 31.58361 27058 ft 427 kts 107°
2026-04-25 20:06 40.43526 31.62118 27062 ft 427 kts 107°
2026-04-25 20:06 40.42743 31.65875 27063 ft 427 kts 107°
2026-04-25 20:06 40.41946 31.69630 27064 ft 427 kts 107°
2026-04-25 20:06 40.41134 31.73377 27063 ft 427 kts 108°
2026-04-25 20:07 40.40303 31.77139 27005 ft 434 kts 108°
2026-04-25 20:07 40.39457 31.80924 26192 ft 431 kts 108°
2026-04-25 20:07 40.38624 31.84656 25556 ft 417 kts 108°
2026-04-25 20:07 40.37830 31.88235 25102 ft 401 kts 108°
2026-04-25 20:08 40.37056 31.91727 24639 ft 396 kts 108°
2026-04-25 20:08 40.36293 31.95176 24178 ft 392 kts 108°
2026-04-25 20:08 40.35533 31.98593 23722 ft 389 kts 108°
2026-04-25 20:08 40.34774 32.01980 23257 ft 386 kts 108°
2026-04-25 20:09 40.34018 32.05336 22799 ft 383 kts 107°
2026-04-25 20:09 40.33513 32.08758 22343 ft 382 kts 96°
2026-04-25 20:09 40.33502 32.12232 21877 ft 381 kts 85°
2026-04-25 20:09 40.33880 32.15666 21410 ft 379 kts 82°
2026-04-25 20:10 40.34018 32.16825 21254 ft 379 kts 82°
2026-04-25 20:10 40.34671 32.22484 20459 ft 376 kts 82°
2026-04-25 20:10 40.35054 32.25873 19983 ft 375 kts 82°
2026-04-25 20:10 40.35434 32.29249 19519 ft 374 kts 82°
2026-04-25 20:11 40.35748 32.32628 19024 ft 373 kts 89°
2026-04-25 20:11 40.35616 32.36004 18550 ft 370 kts 100°
2026-04-25 20:11 40.35262 32.38180 18244 ft 368 kts 105°
2026-04-25 20:11 40.34411 32.42493 17612 ft 359 kts 105°
2026-04-25 20:12 40.33999 32.44589 17324 ft 358 kts 105°
2026-04-25 20:12 40.33380 32.47743 16871 ft 357 kts 105°
2026-04-25 20:12 40.32764 32.50895 16423 ft 356 kts 105°
2026-04-25 20:12 40.32349 32.53015 16123 ft 355 kts 105°
2026-04-25 20:13 40.31534 32.57154 15523 ft 354 kts 105°
2026-04-25 20:13 40.30818 32.60229 15072 ft 352 kts 114°
2026-04-25 20:13 40.29635 32.63011 14543 ft 350 kts 129°
2026-04-25 20:13 40.27852 32.65181 13903 ft 352 kts 149°
2026-04-25 20:14 40.25637 32.66451 13362 ft 343 kts 168°
2026-04-25 20:14 40.23325 32.66710 12881 ft 327 kts 186°
2026-04-25 20:14 40.21147 32.66149 12399 ft 314 kts 195°
2026-04-25 20:14 40.19059 32.65479 11933 ft 304 kts 195°
2026-04-25 20:15 40.17031 32.64833 11531 ft 293 kts 194°
2026-04-25 20:15 40.15105 32.64217 11000 ft 280 kts 194°
2026-04-25 20:15 40.13268 32.63615 10521 ft 262 kts 194°
2026-04-25 20:15 40.11537 32.63086 10218 ft 248 kts 193°
2026-04-25 20:16 40.09874 32.62917 10154 ft 237 kts 172°
2026-04-25 20:16 40.08340 32.63597 10115 ft 235 kts 149°
2026-04-25 20:16 40.07140 32.65020 9952 ft 235 kts 126°
2026-04-25 20:16 40.06471 32.66964 9514 ft 238 kts 104°
2026-04-25 20:17 40.06102 32.69074 9105 ft 238 kts 103°
2026-04-25 20:17 40.05576 32.71101 8703 ft 236 kts 121°
2026-04-25 20:17 40.04687 32.72884 8337 ft 233 kts 124°
2026-04-25 20:17 40.03808 32.74603 8120 ft 224 kts 124°
2026-04-25 20:18 40.02943 32.76273 7836 ft 219 kts 124°
2026-04-25 20:18 40.02096 32.77911 7559 ft 217 kts 124°
2026-04-25 20:18 40.01261 32.79527 7276 ft 213 kts 124°
2026-04-25 20:18 40.00440 32.81120 6990 ft 209 kts 124°
2026-04-25 20:19 39.99634 32.82686 6703 ft 207 kts 124°
2026-04-25 20:19 39.98935 32.84288 6424 ft 201 kts 106°
2026-04-25 20:19 39.99007 32.86062 6100 ft 197 kts 66°
2026-04-25 20:19 39.99871 32.87383 5874 ft 192 kts 37°
2026-04-25 20:20 40.00943 32.88392 5628 ft 189 kts 37°
2026-04-25 20:20 40.01999 32.89385 5376 ft 186 kts 36°
2026-04-25 20:20 40.03044 32.90372 5135 ft 184 kts 36°
2026-04-25 20:20 40.04064 32.91339 4894 ft 179 kts 36°
2026-04-25 20:21 40.05045 32.92270 4659 ft 169 kts 36°
2026-04-25 20:21 40.05967 32.93146 4457 ft 158 kts 37°
2026-04-25 20:21 40.06838 32.93972 4239 ft 152 kts 36°
2026-04-25 20:21 40.07688 32.94781 4037 ft 150 kts 35°
2026-04-25 20:22 40.08531 32.95575 3838 ft 149 kts 36°
2026-04-25 20:22 40.09090 32.96125 3707 ft 149 kts 36°
2026-04-25 20:22 40.10196 32.97162 3455 ft 148 kts 37°
2026-04-25 20:22 40.11025 32.97954 3257 ft 147 kts 35°
2026-04-25 20:23 40.11845 32.98739 3143 ft 142 kts 37°
2026-04-25 20:23 40.12467 32.99329 3136 ft 69 kts 36°
2026-04-25 20:23 40.12778 32.99626 3136 ft 44 kts 35°
2026-04-25 20:23 40.12951 32.99795 3136 ft 24 kts 39°
2026-04-25 20:24 40.13031 32.99939 3136 ft 16 kts 62°
2026-04-25 20:24 40.13080 33.00077 3136 ft 14 kts 68°
2026-04-25 20:24 40.13082 33.00083 3136 ft 0 kts 69°
2026-04-25 20:24 40.13083 33.00087 3136 ft 3 kts 69°
2026-04-25 20:25 40.13055 33.00181 3136 ft 18 kts 167°
2026-04-25 20:25 40.12970 33.00110 3136 ft 14 kts 210°
2026-04-25 20:25 40.12886 33.00033 3136 ft 15 kts 216°
2026-04-25 20:25 40.12799 32.99950 3136 ft 16 kts 216°
2026-04-25 20:26 40.12709 32.99863 3136 ft 17 kts 216°
2026-04-25 20:26 40.12613 32.99772 3136 ft 17 kts 216°
2026-04-25 20:26 40.12513 32.99677 3136 ft 18 kts 216°
2026-04-25 20:26 40.12409 32.99578 3136 ft 19 kts 218°
2026-04-25 20:27 40.12309 32.99483 3136 ft 16 kts 216°
2026-04-25 20:27 40.12226 32.99405 3136 ft 15 kts 215°
2026-04-25 20:27 40.12139 32.99322 3136 ft 16 kts 216°
2026-04-25 20:27 40.12047 32.99233 3136 ft 17 kts 216°
2026-04-25 20:28 40.11950 32.99141 3136 ft 18 kts 216°
2026-04-25 20:28 40.11862 32.99057 3136 ft 15 kts 215°
2026-04-25 20:28 40.11787 32.99077 3136 ft 12 kts 135°
2026-04-25 20:28 40.11725 32.99119 3136 ft 8 kts 171°
2026-04-25 20:29 40.11673 32.99133 3136 ft 6 kts 155°
2026-04-25 20:29 40.11645 32.99155 3136 ft 3 kts 150°
2026-04-25 20:29 40.11636 32.99161 3136 ft 1 kts 150°
2026-04-25 20:29 40.11633 32.99164 3136 ft 0 kts 150°
2026-04-25 20:30 40.11632 32.99164 3136 ft 0 kts 150°